User: anonymous   Login
Location: Geremba
(10.4250°N, 67.2394°W)
Time: 17:11:44
(UTC+00:00)
Language:

Cosmos 2333 Rocket - Orbit

View from above orbital plane
View from above orbital plane
View from above satellite
View from above satellite

Ground track
Ground track

The orbit data is extracted from the following two-line orbital elements,

1 24298U 96051B   24205.41315007 -.00000129  00000-0 -43166-4 0  9998
2 24298  70.8009 352.2453 0017991 290.9997  68.9198 14.12464213437998
Epoch (UTC): 23 July 2024 09:54:56
Eccentricity: 0.0017991
inclination: 70.8009°
perigee height: 838 km
apogee height: 864 km
right ascension of ascending node: 352.2453°
argument of perigee: 290.9997°
revolutions per day: 14.12464213
mean anomaly at epoch: 68.9198°
orbit number at epoch: 43799

The dashed part of the orbit path shows where the satellite is in the earth's shadow,  

DLR